Location: Clarion
(42.7316°N, 93.7330°W)
Time: 09:05:00
(UTC+00:00)

Cosmos 921 Rocket - Pass Details

Date: 22 April 2026
Orbit: 563 x 620 km, 75.8° (Epoch: 16 May)

Event Time Altitude Azimuth Distance (km) Brightness Sun altitude
Rises 04:19:09 0° 339° (NNW) 2,885 7.7 -29.1°
Reaches altitude 10° 04:21:26 10° 336° (NNW) 1,968 6.5 -29.4°
Enters shadow 04:24:18 38° 320° (NW) 923 4.3 -29.6°
